Vorticity
4 3 2 2 2 2 3 5 7 7 4 5 7 8 6 5 17 22 16 16 14 12 24 22 13 17 17 18 21 20 21 19 17 15 15 16 14 13 10 7 7 7 11 14 14 11 8 7 4 3 8 9 8 7 4 3 2 2 1 2 5 7 9 11 12 12 11 7 4 4 7 9 7 1 -2 -1 3 7 9 9 8 7 8 9 10 9
3 2 3 4 4 1 1 3 5 7 4 6 6 5 6 2 13 29 18 11 15 13 20 21 14 19 21 22 25 24 22 17 16 15 13 13 12 10 9 8 9 10 12 14 11 8 6 7 10 12 14 14 11 9 8 6 4 3 2 -0 -1 2 4 8 12 13 15 16 14 10 7 7 7 7 5 -1 -5 -3 -0 2 4 3 4 5 7 8
2 3 4 5 4 2 1 -0 3 9 5 3 5 2 6 7 9 26 25 15 17 17 15 14 17 23 24 26 26 21 19 17 17 17 14 13 13 15 17 18 19 17 15 15 11 7 7 7 7 8 10 14 15 15 16 14 10 8 9 10 12 15 13 12 13 13 13 15 17 17 16 13 9 8 9 9 6 2 -0 -1 -1 0 1 3 5 6
4 5 5 4 4 3 1 -3 -0 7 2 0 6 2 4 15 14 13 16 18 24 26 14 8 18 27 27 27 22 17 21 25 24 24 23 22 22 21 20 17 14 13 10 8 6 6 10 8 3 3 5 9 11 11 14 17 18 17 16 17 19 16 11 12 13 10 8 11 15 16 17 20 18 14 11 9 10 9 7 5 2 2 1 3 6 7
4 6 4 4 5 4 1 -3 -2 3 2 1 6 5 2 15 23 12 6 11 25 31 17 7 13 27 33 21 17 28 31 28 26 25 25 21 16 11 9 7 5 4 3 2 4 4 11 12 5 3 3 3 4 4 8 12 14 17 17 18 17 8 1 6 9 4 3 9 16 14 10 11 13 15 15 12 11 10 11 11 8 7 4 3 5 8
3 5 4 4 4 4 1 -2 -0 0 3 5 5 8 4 10 22 15 6 9 20 27 18 12 11 20 32 22 23 35 25 19 20 19 18 12 7 6 4 5 5 5 3 3 6 4 9 13 7 4 4 4 4 4 6 8 7 7 8 10 13 13 9 8 6 1 3 9 13 12 7 6 4 3 5 8 10 9 11 15 14 14 13 9 7 6
4 5 6 6 3 3 1 -3 -0 0 5 7 5 7 4 10 21 14 9 10 19 26 18 19 17 12 23 25 27 32 22 21 19 9 10 6 3 4 2 3 4 6 7 5 7 5 8 12 8 6 6 5 6 7 8 8 7 5 7 7 5 7 10 9 8 5 5 7 9 10 10 10 9 6 4 3 4 4 6 11 12 14 16 17 15 11
5 5 6 5 3 3 2 -1 1 3 6 5 3 6 1 9 21 12 10 13 18 25 21 26 23 10 19 23 23 30 21 14 8 4 6 4 4 6 4 6 6 6 6 5 4 1 2 4 3 4 4 4 4 4 5 6 6 4 2 4 1 -0 2 1 2 2 2 3 4 7 9 10 11 12 13 9 4 3 4 6 6 7 11 14 17 15
5 5 6 6 4 4 4 4 5 4 5 3 1 5 1 8 21 10 8 17 23 25 21 26 23 8 13 21 24 22 12 14 21 19 15 8 8 9 7 8 6 5 4 4 5 2 1 2 1 1 -0 -1 -1 -3 -1 -0 1 1 -1 -1 -2 -1 -0 -2 -2 -1 -0 0 0 2 3 4 5 7 13 14 12 10 9 8 5 6 10 13 15 16
5 6 7 6 4 4 4 5 6 3 3 4 1 3 2 7 18 10 4 14 24 28 22 21 23 13 9 19 25 13 13 33 30 12 7 5 6 7 8 9 7 8 7 4 5 2 1 1 -0 1 1 2 2 -1 -2 -3 -3 -2 -2 -2 -2 -1 -0 -1 0 -0 -0 1 -0 -0 -0 -0 2 4 8 12 14 15 16 15 11 9 15 18 19 19
6 7 7 7 4 4 4 2 4 2 2 5 1 1 0 4 16 12 5 14 24 26 19 14 21 20 12 17 19 12 21 32 15 2 7 6 6 6 5 7 4 4 9 13 18 20 22 26 28 31 32 34 35 33 30 26 21 17 13 10 9 8 6 5 5 5 4 5 4 4 4 4 6 8 11 14 16 18 21 26 26 22 20 21 22 22
6 7 6 7 5 4 3 -0 -1 -1 1 5 2 1 -0 4 19 15 3 11 26 28 16 13 22 22 17 16 12 16 27 23 11 11 11 5 9 11 8 15 19 24 35 41 44 45 45 47 49 50 49 50 51 53 53 52 50 47 43 40 37 37 35 33 32 31 30 29 28 28 27 26 26 25 25 26 25 25 27 30 32 32 30 26 25 24
5 6 6 7 6 4 3 1 1 1 4 8 5 4 1 1 14 16 3 -2 15 32 23 19 24 14 13 18 13 18 25 19 16 14 13 13 14 17 25 38 45 44 41 35 29 26 24 23 24 28 33 38 41 44 46 48 51 53 53 52 52 51 51 51 50 49 49 48 47 46 46 45 44 42 40 37 34 30 28 26 25 27 29 28 29 31
5 6 6 8 6 4 4 6 9 8 9 10 6 6 4 2 5 9 7 -9 -7 20 25 26 29 11 10 18 12 17 19 14 20 17 14 18 17 27 42 43 36 24 14 11 10 10 10 10 8 10 15 21 28 32 35 39 41 44 46 47 48 49 48 49 48 47 47 46 46 45 45 45 44 44 43 41 39 35 29 26 22 21 21 22 25 28
7 7 6 8 7 4 3 4 8 6 5 5 5 6 6 10 14 13 18 6 -6 12 20 25 30 12 11 19 9 15 21 16 20 18 15 24 32 41 41 25 13 6 4 8 11 12 13 14 11 7 5 9 15 20 26 32 32 32 33 34 36 38 39 40 39 39 39 39 39 38 38 38 38 38 38 37 37 35 32 28 24 22 21 20 20 22
6 6 6 8 6 4 2 2 6 5 3 3 5 8 5 7 11 6 16 19 10 19 19 18 28 14 8 19 14 16 24 18 17 19 26 40 45 37 22 9 2 2 6 9 12 16 16 17 19 14 8 5 8 13 18 26 31 31 32 32 32 32 32 32 32 32 32 32 33 33 33 33 32 32 32 33 34 33 32 30 27 25 23 21 21 21
6 5 6 7 5 4 3 3 7 5 3 3 6 11 9 8 9 -2 -1 8 11 24 24 18 28 15 -0 12 20 20 21 19 21 27 36 42 36 22 10 3 1 1 6 11 15 18 17 17 21 20 17 10 4 7 11 15 21 25 27 28 30 32 31 30 30 29 28 27 26 26 26 27 27 27 27 28 28 28 28 27 26 24 22 23 23 23
5 4 4 7 5 5 4 2 4 2 4 9 8 8 3 4 14 10 -2 -6 -4 9 23 34 34 10 -1 12 18 19 19 20 28 33 35 36 26 14 6 1 -0 2 9 15 17 18 17 16 17 21 25 21 10 5 6 8 10 12 13 14 17 19 21 23 25 27 28 28 29 28 26 25 25 25 25 24 23 23 23 23 23 23 23 25 26 26
5 4 4 7 6 5 3 -1 0 3 7 9 6 7 5 0 9 16 8 1 -5 -12 -1 35 42 8 2 19 15 12 17 20 30 32 31 32 22 9 4 1 0 5 13 18 16 16 15 13 13 15 20 24 22 13 6 5 5 6 6 6 7 8 9 11 13 16 18 19 24 28 29 30 30 27 25 24 23 23 24 23 22 24 26 28 29 29
5 4 4 7 6 3 1 -0 2 5 6 4 0 5 9 7 9 16 17 14 11 -5 -19 9 38 17 5 19 16 12 22 26 30 31 28 27 19 9 4 1 3 9 15 17 14 14 15 15 17 15 13 18 26 25 18 9 4 4 4 6 10 12 12 12 11 11 12 12 14 16 19 24 29 31 30 28 27 26 27 27 28 30 31 30 29 28
4 4 4 5 5 5 4 3 3 4 5 6 6 6 6 7 8 12 20 19 16 12 -8 -9 21 23 10 17 19 14 26 34 30 28 28 22 14 10 5 2 8 13 15 16 15 14 16 19 22 20 15 12 16 24 28 23 16 12 11 13 15 15 14 14 12 12 12 13 14 14 14 16 18 23 28 31 32 32 32 33 33 32 29 24 22 23
4 3 4 4 4 5 3 1 2 4 8 11 8 6 7 8 6 2 7 13 14 18 14 8 21 23 11 14 20 20 30 37 29 26 26 17 10 9 6 6 12 14 13 14 15 16 18 21 24 25 21 14 12 16 20 24 24 22 20 19 16 14 12 11 11 12 13 13 13 15 16 17 17 16 17 20 24 27 27 26 24 20 16 14 16 19
4 3 4 5 5 5 3 4 7 5 9 13 6 4 7 7 10 7 -1 3 9 8 8 17 30 27 15 14 19 27 36 37 29 25 22 14 9 8 7 10 13 14 14 14 14 17 18 19 22 25 24 19 17 16 16 18 20 19 18 15 11 10 9 8 9 10 12 13 13 14 15 16 18 18 16 13 13 13 13 12 12 11 10 9 10 12
4 3 3 3 4 5 4 5 8 5 5 11 8 4 7 6 9 14 8 4 12 9 -6 -0 20 24 19 17 18 28 39 38 33 27 18 11 10 9 9 13 14 13 15 15 14 15 16 17 18 20 23 23 21 22 21 20 17 14 12 9 8 8 8 8 10 9 11 12 12 14 15 16 18 19 19 18 15 12 10 9 9 10 11 10 8 7
5 3 2 4 3 5 7 6 7 8 7 10 10 4 4 8 7 9 9 5 13 22 3 -9 10 23 18 15 20 30 37 37 37 31 17 9 10 11 12 14 14 13 14 14 14 13 13 14 15 16 17 18 20 20 18 15 11 8 7 7 9 10 11 12 13 13 13 13 13 14 16 18 20 21 22 22 21 19 16 14 13 13 14 16 16 14
5 4 2 5 5 5 9 9 6 8 8 7 10 6 0 6 8 6 8 3 4 23 18 -7 -5 15 17 11 17 31 35 31 35 34 21 11 11 14 15 14 14 14 12 12 12 13 13 14 14 15 14 14 14 13 10 8 7 7 10 13 15 16 17 17 16 16 15 13 13 14 16 19 22 25 27 27 26 25 23 21 18 16 16 17 18 17
5 4 2 3 4 3 5 8 4 5 8 5 7 9 4 5 7 5 10 6 -6 8 27 13 -3 5 15 10 10 25 34 30 29 30 23 15 13 16 16 15 15 13 9 8 10 12 14 14 14 15 14 13 11 9 8 8 10 14 16 17 18 19 19 19 17 16 15 13 13 14 16 18 21 23 25 27 29 29 28 26 24 21 19 18 17 14
6 4 3 1 2 3 4 6 4 2 6 6 7 12 7 2 5 6 12 14 -2 -10 7 17 9 5 12 14 12 19 30 29 26 27 22 14 13 16 17 17 16 11 5 5 7 9 11 13 15 17 16 15 13 12 13 15 16 17 16 13 13 16 18 17 16 15 16 15 14 14 16 16 18 21 23 26 30 33 32 30 28 26 23 21 21 20
8 4 3 2 1 3 3 3 4 3 5 6 7 11 9 2 4 10 11 13 8 -3 -5 6 13 9 7 13 16 22 31 30 26 25 20 14 15 16 18 20 18 9 3 3 4 5 8 12 16 19 19 18 18 17 18 17 14 12 11 10 10 12 14 16 16 16 17 16 14 14 16 17 18 21 24 27 33 38 37 33 32 30 26 22 21 21
9 5 5 4 0 2 3 2 3 4 5 5 6 12 13 6 4 11 13 10 10 6 -0 2 13 15 10 11 13 20 32 36 33 31 23 17 18 18 19 21 17 10 5 2 1 2 6 11 16 20 21 20 19 17 14 12 12 10 10 10 10 11 14 15 15 16 16 16 15 14 16 18 18 18 21 23 28 34 36 34 33 32 28 23 19 18
9 7 6 5 2 2 4 3 3 3 3 4 8 12 12 8 6 9 11 10 7 4 1 -1 5 12 15 14 10 14 27 34 34 35 29 20 18 19 20 21 18 13 8 2 1 2 4 10 16 19 21 21 20 17 12 8 8 9 9 10 11 12 14 14 13 14 15 16 15 15 16 17 17 15 14 15 18 22 25 28 29 30 29 25 21 19
10 9 6 5 5 4 4 4 3 1 0 4 9 10 10 12 13 9 9 11 8 4 2 -2 -3 2 10 13 10 11 22 28 29 34 33 22 16 18 19 19 18 15 11 5 1 2 4 10 15 17 19 21 22 23 21 17 13 10 10 12 13 14 16 16 13 13 13 15 16 16 15 16 16 15 12 11 11 12 14 17 20 22 23 22 20 19
10 10 7 5 4 4 5 5 2 -2 1 7 9 9 11 15 13 8 9 14 13 7 4 2 -1 -0 5 9 9 8 16 23 24 30 34 25 18 19 18 17 18 17 13 8 4 2 4 9 14 16 17 18 21 24 26 27 25 20 17 17 17 18 19 18 15 12 11 12 13 14 14 14 16 15 14 13 11 10 10 11 13 14 16 17 18 18
9 10 9 5 4 4 5 4 0 0 6 8 7 8 12 15 14 9 5 8 12 10 7 7 6 4 5 9 10 6 10 20 23 25 29 27 22 20 17 16 18 17 15 12 7 3 5 9 13 15 15 17 22 26 27 26 24 22 22 23 25 25 25 24 21 18 16 15 15 15 15 14 15 15 15 14 13 12 11 9 10 11 10 11 12 12
8 10 10 6 3 3 4 5 5 7 7 4 5 10 12 12 15 14 6 5 10 11 8 8 8 6 7 12 15 9 6 16 25 25 26 28 26 22 18 16 17 18 16 14 11 6 5 8 13 14 13 16 21 23 23 19 17 20 23 25 25 24 23 22 20 19 19 19 19 18 18 17 17 17 17 16 15 15 14 12 12 11 9 9 8 7
7 9 10 9 4 2 4 7 7 4 3 3 5 8 9 10 13 14 10 7 8 8 8 8 6 5 6 9 16 16 8 11 21 25 27 30 28 23 19 18 17 16 15 14 13 10 6 8 12 13 12 14 17 20 20 16 16 19 18 15 13 12 11 10 10 11 11 12 12 12 12 13 13 14 15 16 16 16 17 17 17 17 17 16 15 13
7 8 10 9 5 2 4 6 4 2 4 7 7 5 8 11 12 13 11 7 6 8 8 5 4 5 6 5 10 17 15 13 16 20 26 31 31 25 21 19 17 16 14 13 13 11 8 8 11 12 11 11 13 16 19 18 16 13 10 7 6 6 7 7 8 9 10 11 11 11 10 10 10 10 10 11 12 13 14 16 17 18 19 20 20 21
6 8 10 10 6 3 4 4 4 6 6 7 7 7 8 8 8 13 14 7 5 11 10 4 2 3 4 3 4 9 15 17 18 18 21 28 32 31 26 21 18 16 14 12 13 14 11 8 10 12 11 9 9 10 12 16 16 11 7 6 6 7 7 6 6 8 9 10 9 9 8 9 9 10 10 10 10 11 12 12 13 13 13 14 15 16
6 8 10 11 7 3 5 6 5 5 6 6 6 7 9 7 4 9 15 12 8 10 10 7 5 3 3 2 1 2 6 12 17 20 20 22 28 32 30 26 22 19 16 13 11 14 14 10 9 12 11 8 7 5 5 8 11 11 8 6 6 6 5 4 6 8 8 7 7 7 7 7 8 9 11 11 10 10 10 11 11 12 12 11 12 12
6 7 10 12 8 4 5 7 6 4 5 7 6 5 8 9 6 5 11 15 13 9 8 9 7 4 3 2 1 1 2 5 11 17 19 20 23 27 29 28 23 20 20 18 13 12 14 14 11 11 12 10 7 6 5 4 5 8 9 9 8 5 2 3 7 9 9 8 8 8 9 9 9 10 10 11 10 9 8 8 10 13 12 11 14 15
6 8 11 12 9 5 4 7 7 6 5 6 7 6 5 7 9 8 7 11 14 9 7 10 10 6 3 3 3 3 4 4 6 11 16 20 22 25 29 30 26 19 18 19 18 13 12 15 15 12 11 11 9 7 6 6 6 7 10 11 12 8 3 0 3 7 9 7 5 5 6 7 9 10 10 11 10 8 7 8 10 12 11 10 13 16
6 9 11 11 8 5 4 6 7 6 6 6 8 8 6 5 9 10 8 9 12 10 8 9 10 8 5 4 3 4 4 4 5 8 13 17 20 22 27 32 31 25 19 18 19 16 13 13 16 16 13 10 9 7 6 6 7 8 9 11 13 13 8 1 -1 1 3 3 2 3 3 4 7 9 10 10 10 9 7 7 10 12 11 10 10 13
7 10 11 10 8 5 4 4 4 4 6 7 6 7 7 6 6 8 10 9 9 10 11 10 9 8 7 6 4 4 4 5 6 7 10 14 18 20 23 27 31 31 27 22 19 17 15 13 14 17 18 14 10 7 6 5 6 6 8 9 10 14 14 9 4 2 2 2 3 3 4 4 4 6 8 8 8 9 8 8 10 12 10 9 8 10
8 11 11 9 7 5 5 5 5 5 6 6 6 6 7 7 5 5 7 9 9 10 13 12 9 8 8 7 6 5 4 4 6 6 8 11 15 18 20 23 26 29 31 29 23 18 16 15 13 14 17 19 16 11 7 6 6 6 6 7 8 10 13 14 11 9 9 9 9 10 11 10 7 7 9 9 8 9 8 7 8 10 10 9 7 8
10 11 11 10 8 7 6 6 6 6 6 6 8 8 8 8 7 4 4 7 9 10 12 12 11 9 9 8 7 6 5 4 5 6 6 8 11 15 18 20 23 25 29 31 30 23 17 14 14 13 13 17 20 18 12 7 7 7 6 6 6 7 9 11 12 12 12 12 13 13 15 16 15 12 11 10 11 13 11 7 6 6 7 8 6 7
11 12 11 10 9 7 7 6 5 5 5 6 7 8 9 9 7 6 6 6 6 9 12 12 11 11 10 9 7 6 5 5 5 5 6 6 8 11 14 16 19 23 26 29 32 31 25 16 13 13 13 13 16 20 19 13 9 8 8 7 5 4 5 6 6 6 7 9 10 11 11 13 15 15 14 12 11 13 13 12 9 7 6 6 5 6
11 12 11 9 8 7 6 6 5 5 5 6 6 7 9 10 9 9 8 6 5 8 10 11 12 12 11 9 7 6 5 5 6 6 6 6 7 8 11 13 14 17 23 27 30 33 34 26 16 11 12 13 13 16 20 20 15 10 8 8 7 5 4 3 3 3 3 4 6 8 9 10 10 11 11 11 10 9 10 10 9 8 8 7 6 5
12 12 11 8 7 7 6 5 4 5 5 6 6 7 7 9 10 10 9 8 6 5 7 10 12 14 12 10 9 7 4 4 6 6 6 7 7 6 8 11 12 13 17 21 25 30 35 35 27 16 11 12 14 13 15 19 22 18 12 8 7 7 5 4 3 3 3 2 2 3 4 6 7 7 7 7 7 7 7 7 7 7 8 9 9 8
12 12 10 8 6 6 6 4 3 4 5 4 6 6 6 8 10 10 10 10 7 5 6 8 10 12 13 12 10 9 7 4 4 5 6 7 8 8 7 9 11 12 13 15 20 25 30 35 36 29 17 11 11 13 12 13 17 21 21 16 11 8 6 5 4 3 3 3 2 2 2 1 2 3 4 4 5 5 5 6 6 6 5 6 6 7
12 12 10 9 7 6 5 4 3 4 4 4 4 5 5 7 10 10 11 11 9 7 7 7 7 10 12 11 11 11 10 7 4 4 5 5 6 8 9 8 10 11 12 13 15 20 24 28 33 36 31 21 12 11 12 13 12 14 19 22 21 16 11 7 5 4 3 2 1 1 1 1 0 0 0 1 3 4 4 5 6 7 6 4 3 4
11 11 10 8 6 6 5 4 3 3 4 4 4 4 4 6 8 10 10 11 10 9 8 7 7 9 10 10 11 12 12 10 6 4 5 5 5 6 8 9 10 10 12 13 14 17 21 23 26 32 36 35 26 15 10 11 13 12 12 16 21 23 20 16 11 8 7 5 4 2 1 -1 -1 -1 -1 -0 1 2 3 3 4 5 6 4 3 4
Height
5784 5779 5775 5771 5765 5759 5753 5748 5742 5736 5729 5723 5718 5711 5704 5697 5690 5682 5675 5668 5660 5652 5646 5636 5626 5621 5614 5607 5600 5592 5584 5576 5569 5562 5557 5552 5548 5544 5540 5535 5531 5528 5526 5524 5523 5521 5520 5518 5516 5512 5509 5506 5503 5501 5498 5496 5495 5494 5492 5491 5490 5489 5488 5488 5487 5487 5486 5486 5487 5488 5488 5489 5490 5490 5491 5493 5493 5494 5495 5496 5498 5500 5501 5503 5505 5507
5782 5777 5773 5767 5761 5755 5750 5745 5739 5733 5725 5718 5712 5707 5701 5694 5687 5677 5666 5659 5653 5644 5637 5629 5620 5614 5607 5598 5591 5583 5575 5567 5560 5554 5549 5544 5540 5536 5532 5528 5524 5520 5518 5516 5514 5513 5511 5509 5506 5503 5499 5496 5494 5491 5488 5486 5484 5482 5481 5479 5478 5477 5477 5475 5474 5473 5473 5473 5473 5474 5474 5475 5476 5477 5478 5480 5481 5482 5483 5485 5487 5489 5490 5491 5493 5495
5781 5775 5770 5764 5758 5752 5747 5741 5736 5729 5721 5715 5709 5704 5698 5690 5683 5676 5664 5652 5643 5634 5627 5620 5612 5606 5600 5591 5582 5574 5566 5558 5552 5547 5541 5536 5532 5528 5525 5521 5517 5513 5510 5508 5505 5503 5501 5499 5496 5492 5489 5486 5484 5481 5478 5476 5474 5472 5470 5468 5467 5466 5465 5463 5461 5459 5458 5458 5459 5460 5460 5460 5461 5462 5464 5466 5467 5468 5470 5473 5475 5477 5478 5479 5482 5484
5777 5771 5766 5760 5755 5749 5743 5738 5732 5727 5720 5713 5706 5699 5692 5683 5672 5665 5658 5649 5639 5628 5618 5611 5605 5599 5592 5584 5574 5565 5557 5550 5544 5539 5534 5530 5526 5522 5518 5514 5511 5507 5504 5501 5497 5494 5492 5489 5485 5481 5478 5475 5473 5471 5468 5466 5464 5462 5460 5458 5456 5454 5452 5451 5449 5447 5444 5443 5443 5444 5445 5445 5446 5448 5448 5450 5453 5454 5456 5459 5462 5463 5465 5467 5469 5471
5773 5768 5762 5756 5751 5746 5740 5735 5730 5726 5719 5711 5703 5694 5685 5677 5667 5656 5648 5642 5636 5628 5615 5603 5596 5591 5583 5574 5564 5557 5549 5542 5537 5532 5528 5525 5521 5517 5513 5509 5505 5501 5497 5493 5490 5486 5482 5479 5475 5471 5467 5464 5462 5460 5457 5455 5453 5451 5448 5446 5444 5442 5440 5438 5437 5434 5432 5429 5427 5427 5427 5429 5431 5433 5434 5436 5438 5441 5442 5445 5448 5449 5450 5452 5455 5457
5770 5766 5761 5755 5749 5743 5737 5731 5726 5721 5715 5707 5699 5690 5679 5670 5663 5654 5644 5634 5627 5621 5609 5594 5584 5580 5575 5566 5556 5549 5542 5535 5531 5527 5523 5520 5516 5512 5507 5503 5499 5495 5491 5486 5482 5477 5473 5469 5465 5462 5458 5455 5452 5449 5446 5444 5442 5439 5436 5434 5432 5430 5428 5427 5425 5422 5420 5417 5414 5412 5412 5412 5413 5417 5420 5421 5425 5428 5429 5431 5434 5435 5435 5437 5439 5443
5768 5763 5757 5752 5746 5740 5733 5728 5723 5717 5710 5702 5693 5684 5676 5666 5658 5651 5640 5629 5620 5613 5603 5592 5580 5572 5567 5559 5551 5543 5536 5530 5527 5523 5519 5516 5511 5506 5502 5497 5493 5488 5484 5479 5474 5469 5465 5461 5457 5453 5450 5446 5442 5439 5435 5433 5430 5426 5423 5421 5419 5417 5416 5414 5413 5410 5407 5403 5400 5399 5398 5397 5398 5400 5403 5406 5409 5413 5415 5417 5420 5421 5421 5421 5424 5427
5764 5760 5754 5749 5744 5738 5732 5726 5720 5713 5704 5696 5688 5681 5674 5665 5656 5648 5638 5628 5620 5613 5603 5590 5576 5563 5556 5550 5544 5538 5531 5525 5522 5517 5513 5510 5505 5501 5496 5491 5486 5481 5476 5470 5466 5462 5457 5453 5448 5444 5440 5436 5432 5427 5423 5419 5416 5412 5408 5406 5404 5402 5402 5401 5400 5398 5395 5392 5388 5387 5385 5385 5385 5385 5388 5390 5392 5395 5398 5401 5405 5405 5406 5406 5407 5411
5762 5757 5752 5747 5741 5735 5728 5720 5714 5707 5701 5693 5686 5680 5673 5664 5655 5648 5640 5629 5617 5605 5591 5578 5566 5554 5549 5544 5538 5532 5527 5521 5515 5511 5507 5503 5498 5493 5489 5484 5479 5473 5468 5462 5457 5453 5449 5444 5439 5434 5429 5425 5421 5415 5411 5406 5402 5398 5394 5391 5388 5387 5387 5386 5386 5384 5383 5380 5376 5375 5373 5373 5373 5373 5373 5374 5375 5377 5379 5384 5388 5389 5390 5391 5391 5394
5759 5754 5749 5743 5736 5730 5723 5715 5708 5703 5698 5691 5684 5678 5672 5664 5656 5648 5639 5626 5610 5595 5579 5567 5559 5549 5542 5537 5531 5525 5521 5515 5509 5505 5501 5496 5491 5486 5481 5476 5471 5465 5460 5455 5450 5445 5440 5435 5430 5425 5419 5414 5409 5403 5398 5393 5389 5384 5381 5377 5375 5373 5372 5371 5370 5369 5368 5365 5362 5361 5359 5359 5359 5359 5359 5360 5361 5362 5363 5366 5370 5373 5374 5375 5375 5377
5756 5751 5746 5740 5732 5726 5719 5710 5702 5696 5691 5686 5679 5674 5670 5664 5653 5642 5631 5615 5597 5584 5573 5565 5559 5549 5537 5531 5526 5521 5514 5508 5503 5499 5494 5490 5485 5480 5474 5468 5463 5457 5452 5447 5442 5437 5431 5426 5420 5414 5408 5402 5396 5390 5385 5380 5375 5370 5367 5363 5361 5359 5358 5356 5354 5352 5351 5349 5346 5345 5343 5342 5342 5342 5343 5344 5346 5348 5349 5351 5354 5356 5359 5359 5358 5360
5755 5749 5743 5738 5731 5724 5719 5711 5702 5694 5689 5682 5673 5664 5658 5652 5642 5628 5617 5604 5586 5575 5569 5563 5555 5545 5535 5527 5522 5515 5508 5502 5497 5493 5488 5483 5478 5473 5467 5460 5454 5448 5443 5438 5433 5427 5422 5416 5410 5403 5396 5390 5384 5378 5372 5367 5362 5357 5353 5350 5346 5345 5343 5341 5338 5336 5334 5332 5330 5328 5327 5326 5326 5325 5326 5327 5330 5333 5335 5337 5339 5341 5344 5345 5344 5345
5753 5748 5741 5736 5730 5723 5718 5712 5706 5698 5687 5677 5666 5653 5638 5628 5621 5610 5598 5590 5583 5576 5569 5558 5546 5539 5533 5527 5518 5510 5503 5497 5492 5487 5481 5475 5468 5462 5456 5451 5445 5440 5434 5430 5425 5419 5414 5407 5401 5395 5387 5380 5373 5367 5361 5356 5350 5346 5342 5338 5334 5331 5329 5325 5322 5320 5318 5316 5313 5311 5310 5309 5309 5309 5309 5311 5313 5317 5319 5322 5325 5326 5329 5331 5331 5332
5752 5747 5740 5734 5727 5719 5710 5702 5694 5685 5674 5663 5653 5640 5625 5613 5604 5594 5583 5577 5576 5575 5567 5555 5544 5536 5530 5523 5514 5506 5499 5494 5487 5480 5474 5466 5458 5452 5447 5443 5439 5435 5430 5425 5419 5413 5407 5400 5394 5387 5380 5372 5365 5358 5352 5347 5342 5337 5332 5328 5324 5320 5317 5313 5310 5307 5305 5302 5300 5298 5296 5294 5293 5293 5294 5295 5297 5300 5303 5306 5309 5312 5314 5317 5318 5319
5747 5740 5735 5729 5721 5712 5703 5694 5685 5675 5668 5660 5649 5640 5631 5619 5603 5590 5580 5573 5571 5568 5562 5552 5542 5532 5524 5516 5509 5502 5495 5488 5481 5474 5467 5460 5452 5445 5441 5438 5434 5431 5426 5420 5413 5407 5399 5392 5386 5379 5373 5366 5359 5352 5345 5340 5334 5329 5325 5321 5316 5312 5309 5305 5301 5298 5295 5293 5290 5287 5285 5283 5281 5281 5281 5282 5283 5286 5289 5292 5295 5298 5300 5304 5306 5306
5744 5736 5729 5723 5716 5708 5700 5692 5685 5678 5669 5660 5652 5644 5634 5622 5610 5604 5599 5589 5576 5565 5556 5549 5542 5531 5522 5516 5508 5499 5491 5484 5476 5469 5462 5455 5448 5442 5437 5434 5430 5425 5419 5413 5407 5400 5393 5386 5379 5372 5366 5360 5354 5348 5342 5335 5329 5324 5319 5315 5310 5306 5302 5298 5295 5291 5288 5285 5282 5279 5277 5274 5272 5271 5271 5272 5273 5274 5277 5280 5283 5286 5288 5292 5294 5296
5744 5736 5728 5720 5714 5707 5699 5691 5682 5674 5666 5659 5652 5642 5628 5617 5611 5609 5607 5598 5581 5564 5552 5544 5536 5526 5518 5512 5504 5494 5486 5479 5472 5464 5456 5448 5442 5438 5434 5430 5426 5420 5415 5409 5402 5395 5387 5380 5373 5366 5360 5355 5349 5344 5339 5333 5327 5321 5316 5311 5307 5302 5298 5294 5290 5287 5283 5280 5277 5274 5271 5268 5266 5265 5264 5264 5265 5266 5267 5270 5272 5275 5278 5281 5285 5287
5743 5736 5728 5720 5713 5705 5696 5688 5679 5671 5664 5656 5647 5636 5629 5624 5616 5605 5593 5583 5573 5561 5551 5542 5533 5522 5513 5505 5497 5489 5481 5473 5465 5457 5449 5442 5437 5433 5430 5426 5421 5417 5412 5406 5399 5391 5384 5377 5370 5363 5356 5350 5344 5339 5334 5330 5325 5320 5314 5309 5304 5300 5296 5292 5287 5283 5280 5276 5273 5270 5267 5265 5262 5260 5259 5258 5258 5259 5260 5262 5264 5267 5270 5273 5276 5280
5741 5736 5728 5719 5711 5703 5695 5686 5679 5672 5662 5650 5640 5633 5628 5621 5610 5597 5582 5571 5563 5553 5546 5543 5536 5523 5510 5500 5490 5481 5474 5466 5459 5452 5445 5438 5432 5428 5424 5420 5416 5411 5406 5401 5395 5388 5381 5374 5367 5360 5354 5347 5340 5334 5330 5325 5321 5317 5312 5307 5303 5298 5294 5290 5286 5282 5278 5274 5271 5268 5265 5262 5260 5257 5255 5254 5254 5254 5255 5256 5258 5260 5263 5266 5270 5273
5739 5734 5727 5718 5709 5702 5697 5690 5681 5671 5660 5653 5648 5642 5635 5623 5609 5597 5585 5574 5561 5549 5541 5537 5531 5519 5506 5495 5486 5478 5471 5462 5453 5446 5440 5434 5428 5423 5418 5413 5409 5404 5398 5393 5388 5382 5377 5370 5363 5357 5351 5345 5338 5332 5327 5322 5317 5313 5309 5305 5301 5297 5292 5288 5284 5280 5276 5273 5269 5266 5263 5260 5257 5255 5253 5251 5250 5250 5251 5252 5253 5256 5258 5262 5265 5269
5737 5732 5727 5719 5710 5702 5694 5685 5676 5668 5662 5658 5651 5644 5636 5627 5617 5608 5596 5578 5561 5549 5538 5528 5523 5518 5505 5494 5487 5480 5472 5462 5451 5443 5437 5431 5426 5421 5415 5409 5404 5398 5393 5387 5382 5376 5371 5365 5359 5353 5347 5342 5337 5331 5325 5320 5315 5310 5306 5303 5299 5295 5291 5287 5283 5279 5275 5271 5268 5265 5262 5259 5256 5254 5251 5250 5248 5248 5248 5249 5251 5253 5256 5259 5263 5267
5735 5730 5725 5719 5711 5701 5692 5683 5677 5672 5666 5656 5645 5637 5628 5617 5609 5601 5590 5577 5565 5554 5542 5529 5522 5515 5503 5496 5490 5481 5471 5462 5451 5443 5437 5431 5426 5421 5414 5408 5401 5395 5389 5383 5377 5372 5367 5361 5355 5349 5344 5339 5334 5329 5324 5318 5313 5309 5304 5301 5297 5293 5289 5286 5282 5278 5274 5271 5267 5264 5261 5258 5256 5253 5251 5249 5248 5248 5248 5248 5250 5252 5255 5258 5261 5265
5735 5730 5724 5719 5712 5704 5697 5689 5681 5672 5664 5655 5645 5635 5624 5612 5601 5588 5576 5571 5567 5559 5550 5541 5530 5519 5508 5500 5491 5480 5470 5461 5451 5443 5438 5433 5426 5420 5414 5407 5400 5394 5387 5380 5374 5369 5364 5358 5352 5346 5341 5336 5332 5327 5322 5317 5313 5308 5304 5300 5296 5292 5288 5285 5281 5277 5274 5270 5266 5263 5260 5257 5255 5253 5251 5250 5249 5248 5248 5249 5250 5252 5254 5257 5259 5263
5735 5729 5723 5718 5714 5708 5700 5692 5682 5672 5663 5654 5644 5631 5620 5610 5600 5589 5579 5572 5564 5556 5547 5538 5530 5523 5514 5502 5490 5481 5472 5462 5452 5444 5437 5432 5425 5419 5412 5406 5400 5393 5387 5381 5375 5368 5362 5356 5350 5345 5340 5335 5330 5326 5321 5317 5312 5308 5304 5300 5295 5291 5288 5284 5280 5276 5273 5269 5266 5262 5259 5256 5254 5252 5250 5249 5248 5248 5248 5249 5250 5251 5253 5256 5258 5261
5733 5726 5719 5714 5709 5704 5697 5689 5681 5671 5659 5648 5637 5627 5618 5609 5601 5595 5588 5578 5569 5561 5549 5536 5529 5524 5513 5500 5490 5482 5472 5463 5454 5444 5435 5429 5423 5417 5411 5405 5399 5392 5387 5382 5375 5368 5362 5356 5350 5345 5340 5334 5330 5325 5321 5317 5312 5308 5304 5300 5295 5291 5287 5283 5279 5275 5272 5269 5265 5262 5259 5256 5253 5250 5248 5247 5247 5246 5247 5247 5248 5250 5252 5254 5256 5259
5731 5724 5715 5706 5698 5690 5682 5675 5668 5661 5652 5643 5635 5627 5618 5611 5603 5595 5587 5580 5573 5565 5552 5539 5529 5521 5511 5500 5490 5479 5469 5459 5452 5444 5436 5428 5421 5415 5409 5403 5397 5392 5387 5382 5375 5368 5362 5356 5350 5345 5339 5334 5329 5325 5320 5316 5312 5307 5303 5299 5295 5290 5286 5282 5279 5275 5271 5268 5265 5261 5258 5255 5252 5249 5247 5245 5244 5244 5244 5245 5246 5248 5249 5252 5254 5256
5731 5724 5715 5706 5698 5689 5681 5673 5666 5659 5652 5645 5637 5628 5618 5609 5601 5593 5587 5581 5573 5564 5556 5543 5526 5514 5505 5494 5483 5474 5465 5455 5447 5441 5436 5429 5421 5414 5408 5402 5397 5392 5386 5380 5374 5369 5363 5356 5350 5344 5339 5333 5329 5324 5320 5315 5311 5307 5302 5298 5294 5290 5286 5283 5279 5275 5271 5268 5265 5261 5258 5255 5251 5248 5246 5244 5242 5241 5241 5242 5243 5245 5247 5249 5251 5254
5729 5723 5715 5707 5700 5692 5684 5677 5669 5662 5655 5648 5639 5628 5617 5608 5602 5598 5591 5581 5571 5562 5554 5542 5527 5513 5501 5490 5478 5469 5460 5451 5444 5437 5431 5426 5420 5414 5407 5402 5397 5392 5386 5380 5375 5369 5363 5356 5350 5344 5339 5333 5328 5323 5319 5314 5310 5307 5302 5299 5295 5291 5287 5283 5279 5276 5272 5269 5265 5262 5258 5255 5251 5248 5245 5243 5241 5239 5239 5239 5240 5242 5244 5246 5248 5251
5727 5722 5716 5708 5700 5693 5684 5677 5671 5664 5656 5649 5639 5630 5623 5616 5609 5602 5592 5582 5573 5560 5548 5539 5528 5514 5503 5494 5483 5468 5456 5447 5440 5433 5427 5423 5419 5413 5408 5403 5398 5392 5387 5381 5376 5369 5363 5356 5350 5344 5338 5333 5328 5323 5319 5315 5311 5307 5303 5299 5295 5291 5288 5284 5280 5277 5273 5270 5267 5263 5260 5256 5253 5249 5246 5243 5241 5239 5238 5238 5239 5240 5242 5244 5246 5248
5725 5719 5714 5708 5701 5694 5686 5679 5671 5664 5657 5649 5640 5632 5625 5617 5607 5598 5590 5582 5574 5564 5553 5543 5533 5522 5512 5500 5485 5472 5462 5453 5444 5437 5432 5426 5420 5414 5409 5403 5398 5392 5387 5382 5377 5370 5364 5357 5350 5344 5338 5333 5328 5324 5319 5315 5311 5307 5304 5300 5296 5292 5288 5285 5281 5278 5275 5271 5268 5265 5261 5258 5255 5252 5249 5246 5243 5241 5240 5239 5239 5240 5242 5244 5246 5247
5723 5718 5713 5707 5701 5695 5687 5679 5671 5664 5657 5649 5640 5633 5625 5617 5607 5598 5589 5579 5569 5561 5553 5546 5540 5532 5518 5501 5487 5478 5471 5461 5452 5444 5436 5427 5421 5415 5409 5403 5397 5392 5388 5382 5376 5371 5364 5358 5351 5345 5339 5333 5328 5324 5319 5315 5311 5308 5304 5300 5296 5293 5289 5286 5283 5279 5276 5273 5269 5266 5263 5261 5258 5255 5252 5250 5247 5245 5243 5242 5242 5242 5243 5244 5245 5247
5722 5716 5711 5706 5700 5694 5687 5680 5673 5665 5656 5648 5641 5636 5628 5618 5606 5594 5584 5573 5563 5555 5549 5543 5536 5524 5510 5501 5494 5485 5473 5462 5452 5444 5435 5427 5421 5415 5408 5402 5396 5392 5387 5382 5376 5371 5365 5358 5352 5346 5340 5334 5329 5324 5319 5315 5311 5307 5304 5300 5296 5293 5290 5287 5284 5280 5277 5274 5271 5268 5266 5263 5261 5259 5256 5254 5251 5249 5247 5246 5245 5245 5245 5246 5247 5248
5720 5715 5710 5704 5699 5693 5687 5680 5673 5666 5658 5650 5643 5636 5627 5617 5608 5599 5590 5579 5567 5557 5546 5534 5523 5513 5508 5504 5494 5480 5467 5457 5448 5439 5432 5426 5420 5413 5406 5400 5396 5391 5386 5381 5376 5370 5365 5358 5352 5346 5340 5334 5329 5324 5319 5315 5311 5308 5304 5300 5297 5294 5291 5288 5285 5282 5279 5276 5273 5271 5268 5266 5264 5262 5259 5257 5255 5253 5251 5250 5249 5249 5249 5249 5249 5250
5719 5713 5708 5702 5697 5692 5686 5681 5675 5668 5659 5649 5640 5632 5623 5615 5607 5598 5589 5581 5573 5563 5551 5538 5527 5519 5512 5502 5488 5474 5463 5453 5444 5436 5430 5424 5419 5412 5406 5401 5396 5391 5386 5381 5376 5371 5365 5359 5353 5347 5341 5336 5330 5325 5320 5316 5312 5308 5305 5301 5298 5295 5292 5289 5286 5284 5281 5278 5276 5273 5271 5269 5266 5264 5262 5260 5258 5256 5255 5254 5253 5252 5252 5251 5252 5252
5718 5712 5706 5701 5695 5689 5684 5678 5671 5663 5654 5645 5638 5630 5623 5615 5608 5600 5592 5585 5578 5569 5558 5548 5537 5525 5511 5497 5486 5477 5466 5457 5448 5440 5432 5425 5418 5411 5407 5402 5397 5392 5386 5381 5376 5371 5366 5360 5355 5349 5343 5338 5332 5327 5322 5318 5314 5310 5307 5304 5300 5297 5295 5292 5289 5286 5284 5281 5279 5276 5274 5272 5269 5267 5265 5263 5261 5259 5258 5257 5256 5255 5254 5254 5254 5254
5716 5710 5705 5699 5693 5687 5680 5673 5664 5657 5651 5645 5638 5631 5624 5619 5614 5607 5599 5589 5578 5568 5560 5550 5540 5528 5516 5504 5494 5483 5472 5462 5453 5444 5436 5427 5418 5412 5407 5402 5397 5392 5386 5381 5376 5372 5367 5362 5356 5351 5346 5340 5335 5329 5325 5321 5317 5313 5310 5307 5304 5301 5298 5295 5293 5290 5287 5285 5282 5280 5277 5275 5272 5270 5268 5266 5264 5262 5261 5259 5258 5257 5256 5256 5255 5255
5715 5709 5703 5697 5692 5686 5679 5672 5666 5661 5653 5645 5636 5629 5621 5613 5605 5598 5590 5581 5573 5565 5557 5548 5540 5533 5525 5515 5504 5493 5481 5469 5458 5448 5438 5428 5420 5413 5407 5402 5397 5392 5386 5381 5376 5371 5366 5362 5357 5352 5348 5343 5338 5333 5328 5324 5320 5316 5313 5310 5307 5304 5302 5299 5296 5293 5291 5288 5286 5283 5281 5278 5276 5273 5271 5269 5267 5265 5264 5262 5261 5259 5258 5257 5256 5255
5713 5707 5701 5695 5689 5684 5678 5672 5666 5660 5651 5643 5635 5628 5618 5609 5600 5594 5586 5578 5570 5563 5555 5547 5541 5534 5527 5519 5510 5501 5491 5478 5465 5452 5441 5431 5423 5415 5409 5403 5397 5391 5387 5382 5377 5372 5367 5363 5358 5354 5350 5345 5340 5336 5331 5327 5324 5320 5316 5314 5311 5308 5305 5302 5299 5297 5294 5291 5289 5286 5284 5281 5279 5276 5274 5272 5270 5268 5266 5265 5263 5261 5260 5258 5257 5256
5712 5706 5700 5694 5688 5681 5675 5668 5661 5654 5648 5641 5634 5627 5619 5611 5603 5596 5590 5582 5573 5564 5557 5550 5541 5532 5523 5515 5507 5499 5491 5480 5468 5455 5444 5435 5426 5417 5410 5404 5398 5392 5387 5382 5378 5373 5368 5364 5360 5355 5351 5347 5343 5339 5334 5331 5327 5323 5320 5317 5314 5311 5308 5305 5302 5299 5297 5294 5292 5289 5287 5284 5281 5279 5277 5274 5273 5271 5269 5267 5265 5263 5261 5260 5259 5258
5711 5705 5699 5693 5686 5680 5674 5668 5661 5654 5647 5640 5632 5625 5618 5612 5604 5597 5591 5584 5574 5565 5556 5548 5540 5530 5521 5512 5503 5494 5485 5475 5465 5455 5446 5436 5426 5418 5411 5404 5399 5394 5389 5383 5378 5374 5369 5365 5361 5357 5353 5349 5345 5341 5337 5333 5330 5326 5323 5319 5316 5313 5310 5307 5305 5302 5300 5297 5294 5292 5289 5287 5284 5281 5279 5277 5275 5273 5271 5269 5267 5265 5263 5261 5260 5258
5710 5704 5698 5692 5686 5679 5673 5667 5661 5653 5646 5639 5633 5626 5618 5612 5605 5596 5586 5578 5571 5563 5555 5546 5537 5528 5519 5511 5502 5493 5483 5473 5464 5455 5446 5437 5428 5420 5412 5404 5398 5393 5389 5384 5379 5374 5370 5366 5362 5358 5354 5351 5347 5343 5340 5336 5332 5328 5325 5321 5318 5315 5312 5310 5307 5304 5302 5299 5297 5294 5291 5289 5286 5284 5282 5280 5277 5275 5273 5271 5269 5267 5264 5262 5261 5259
5707 5702 5696 5690 5684 5678 5672 5666 5660 5654 5647 5639 5632 5625 5617 5609 5601 5593 5584 5576 5569 5562 5554 5545 5537 5529 5521 5513 5504 5495 5485 5476 5466 5457 5448 5439 5431 5422 5414 5407 5400 5394 5389 5384 5380 5375 5371 5367 5363 5359 5355 5351 5348 5344 5341 5338 5334 5330 5327 5323 5320 5317 5314 5311 5308 5306 5303 5301 5298 5296 5293 5291 5288 5286 5284 5281 5279 5277 5274 5272 5270 5268 5266 5264 5262 5261
5704 5699 5694 5688 5683 5677 5671 5664 5658 5652 5645 5637 5630 5623 5616 5608 5599 5592 5585 5577 5569 5562 5554 5546 5538 5531 5523 5515 5506 5497 5488 5478 5470 5461 5451 5442 5434 5425 5417 5409 5402 5396 5391 5385 5380 5376 5372 5368 5364 5360 5356 5353 5349 5345 5342 5339 5335 5332 5328 5325 5322 5318 5315 5312 5310 5307 5305 5302 5300 5297 5295 5292 5290 5288 5285 5283 5281 5278 5276 5274 5272 5270 5268 5266 5264 5262
5702 5696 5691 5685 5680 5674 5668 5661 5655 5648 5642 5635 5628 5622 5615 5608 5600 5593 5586 5578 5570 5563 5555 5547 5540 5532 5525 5517 5508 5499 5490 5482 5474 5465 5456 5447 5438 5428 5420 5412 5405 5398 5392 5386 5381 5377 5373 5369 5365 5361 5357 5353 5350 5346 5343 5339 5336 5333 5329 5326 5323 5320 5317 5314 5311 5308 5306 5303 5300 5298 5296 5293 5291 5289 5286 5284 5282 5279 5277 5275 5273 5271 5269 5268 5266 5264
5701 5696 5690 5684 5678 5672 5667 5661 5656 5650 5644 5637 5630 5623 5615 5608 5601 5593 5586 5578 5570 5562 5555 5549 5541 5534 5526 5518 5509 5501 5492 5485 5477 5469 5460 5450 5441 5432 5423 5415 5408 5401 5394 5387 5381 5376 5372 5369 5365 5361 5358 5354 5350 5347 5344 5340 5337 5333 5330 5327 5324 5321 5318 5315 5312 5309 5307 5304 5301 5299 5296 5294 5291 5289 5287 5285 5283 5280 5278 5276 5274 5272 5270 5269 5267 5265
5701 5695 5689 5684 5679 5673 5667 5661 5655 5649 5643 5637 5630 5622 5615 5608 5601 5594 5586 5578 5571 5563 5556 5549 5542 5535 5527 5519 5511 5502 5495 5487 5480 5471 5462 5453 5444 5435 5426 5418 5411 5403 5396 5389 5382 5377 5372 5368 5364 5360 5357 5353 5350 5346 5343 5340 5337 5334 5331 5328 5325 5322 5319 5316 5313 5311 5308 5305 5302 5300 5297 5294 5292 5290 5287 5286 5284 5282 5279 5277 5275 5273 5271 5269 5267 5266
5700 5694 5689 5683 5677 5672 5667 5661 5654 5648 5641 5634 5628 5621 5614 5607 5601 5594 5586 5579 5572 5564 5556 5549 5542 5535 5527 5519 5511 5504 5497 5489 5481 5473 5464 5455 5446 5438 5429 5421 5413 5406 5398 5391 5384 5378 5372 5368 5364 5360 5357 5353 5350 5346 5343 5340 5337 5334 5331 5328 5326 5323 5320 5317 5314 5312 5309 5306 5304 5301 5298 5296 5293 5291 5288 5286 5284 5282 5280 5278 5276 5274 5272 5270 5268 5266
5698 5692 5688 5682 5676 5671 5665 5660 5654 5647 5640 5634 5627 5620 5614 5607 5600 5593 5586 5579 5571 5564 5557 5550 5542 5534 5526 5518 5512 5505 5498 5490 5483 5474 5466 5458 5449 5440 5432 5424 5416 5408 5401 5393 5386 5379 5374 5369 5364 5361 5357 5354 5350 5347 5343 5340 5336 5333 5330 5328 5325 5322 5320 5317 5314 5312 5309 5307 5304 5302 5299 5297 5294 5292 5289 5287 5285 5282 5280 5278 5276 5275 5273 5271 5269 5268
5696 5690 5685 5680 5675 5670 5664 5659 5653 5647 5640 5634 5628 5621 5614 5607 5600 5593 5586 5579 5571 5563 5556 5548 5541 5533 5526 5519 5512 5505 5498 5491 5484 5476 5468 5460 5452 5443 5434 5426 5418 5410 5402 5395 5388 5382 5375 5370 5365 5361 5357 5354 5350 5347 5343 5339 5336 5332 5329 5326 5324 5321 5319 5316 5314 5311 5309 5306 5304 5302 5299 5297 5295 5292 5290 5287 5285 5283 5281 5279 5277 5275 5273 5271 5269 5267
5695 5689 5683 5678 5674 5668 5663 5657 5652 5646 5640 5633 5627 5620 5614 5607 5600 5593 5586 5578 5570 5563 5555 5547 5540 5533 5526 5519 5513 5506 5499 5492 5485 5478 5470 5462 5454 5446 5437 5428 5420 5412 5404 5397 5390 5383 5376 5371 5366 5361 5357 5354 5350 5346 5342 5339 5335 5332 5329 5325 5323 5320 5317 5315 5312 5310 5308 5306 5303 5301 5299 5296 5294 5292 5289 5287 5285 5283 5281 5279 5277 5275 5273 5271 5268 5266
5693 5687 5682 5677 5672 5667 5661 5656 5650 5644 5638 5632 5625 5619 5612 5605 5599 5592 5585 5577 5570 5563 5555 5548 5541 5533 5526 5520 5514 5507 5499 5493 5486 5479 5471 5463 5455 5448 5440 5432 5423 5415 5408 5400 5392 5385 5378 5372 5367 5362 5358 5354 5349 5346 5342 5338 5335 5331 5328 5325 5322 5319 5316 5313 5311 5309 5306 5304 5302 5300 5297 5295 5293 5291 5289 5287 5284 5281 5279 5277 5275 5273 5272 5270 5268 5265